Location: Cottbus
(51.7000°N, 14.3000°E)
Time: 01:02:59
(UTC+01:00)

ISS - Visible Passes

Search period start: 24 January 2019 00:00
Search period end: 03 February 2019 00:00
Orbit: 404 x 410 km, 51.6° (Epoch: 24 January)

Date Brightness Start Highest point End Pass type
(mag) Time Alt. Az. Time Alt. Az. Time Alt. Az.
24 Jan -1.4 17:49:50 10° SSE 17:51:00 11° SE 17:52:03 10° ESE visible
24 Jan -1.3 19:23:45 10° SW 19:24:47 18° SW 19:24:47 18° SW visible
25 Jan -2.7 18:32:42 10° SW 18:35:39 31° SSE 18:35:41 31° SSE visible
26 Jan -2.1 17:41:51 10° SSW 17:44:26 21° SE 17:46:30 13° E visible
26 Jan -2.1 19:17:18 10° WSW 19:19:14 31° WSW 19:19:14 31° WSW visible
27 Jan -3.4 18:26:02 10° SW 18:29:15 50° SSE 18:30:00 40° ESE visible
27 Jan -0.4 20:02:24 10° W 20:02:43 12° W 20:02:43 12° W visible
28 Jan -2.8 17:34:52 10° SW 17:37:56 36° SSE 17:40:43 12° E visible
28 Jan -2.8 19:10:59 10° W 19:13:26 46° WSW 19:13:26 46° WSW visible
29 Jan -3.8 18:19:35 10° WSW 18:22:53 74° SSE 18:24:07 35° E visible
29 Jan -0.7 19:56:06 10° W 19:56:50 16° W 19:56:50 16° W visible
30 Jan -3.4 17:28:14 10° WSW 17:31:29 58° SSE 17:34:45 10° E visible
30 Jan -3.4 19:04:39 10° W 19:07:29 62° W 19:07:29 62° W visible
31 Jan -3.9 18:13:12 10° W 18:16:31 89° S 18:18:09 28° E visible
31 Jan -1.0 19:49:45 10° W 19:50:52 19° W 19:50:52 19° W visible
01 Feb -3.7 17:21:45 10° WSW 17:25:04 80° S 17:28:23 10° E visible
01 Feb -3.8 18:58:17 10° W 19:01:32 81° SW 19:01:32 81° SW visible
02 Feb -3.9 18:06:49 10° W 18:10:08 90° ENE 18:12:12 21° E visible
02 Feb -1.4 19:43:23 10° W 19:44:55 24° W 19:44:55 24° W visible
